Tracking 19795 objects as of 20-Jul-2019
HD Live streaming from Space Station
objects crossing your sky now

AMC-7 (GE-7)

Track AMC-7 (GE-7) now!
AMC-7 (GE-7) is classified as:


NORAD ID: 26495
Int'l Code: 2000-054B
Perigee: 35,780.8 km
Apogee: 35,806.3 km
Inclination: 0.5 °
Period: 1,436.1 minutes
Semi major axis: 42164 km
RCS: 22.9975 m2 (large)
Launch date: September 14, 2000
Source: SOCIETE EUROPEENNE DES SATELLITES (SES)
Launch site: FRENCH GUIANA (FRGUI)

Cable programming; 24 C-band; CONUS, Alaska, Hawaii, Caribbean
aabbcc
Your satellite tracking list
Your tracking list is empty




NASA's NSSDC Master Catalog

Two Line Element Set (TLE):
1 26495U 00054B   19200.15557806  .00000079  00000-0  00000+0 0  9999
2 26495   0.5426  95.4251 0003030  26.7032  95.5266  1.00272525 68930
Source of the keplerian elements: AFSPC